Location: Wangen+im+Allg�u
(47.7098°N, 9.8383°E)
Time: 02:54:48
(UTC+01:00)

ISS - Pass Details

Date: 04 January 2018
Orbit: 402 x 407 km, 51.6° (Epoch: 18 January)

Event Time Altitude Azimuth Distance (km) Brightness Sun altitude
Exits shadow 05:20:59 18° 64° (ENE) 1,066 -1.1 -27.3°
Drops below altitude 10° 05:21:59 10° 66° (ENE) 1,470 -0.2 -27.1°
Sets 05:24:05 0° 67° (ENE) 2,334 1.0 -26.7°
